sat.trackr.live / text

‹ back to catalog

STARLINK-11419 [DTC]

NORAD 62883 · 2025-024E

PAYLOAD ACTIVE UNKNOWN

§ Identity

Operator
Country
US
Launch date
2025-02-04
Launch site
AFETR
Launch vehicle
Mass (kg)
RCS (m²)

Purposes: comms

External: N2YO · Heavens-Above · Gunter

§ Orbital elements

Epoch: 2026-09-21T21:19:01.399296Z

Period
91.66 min
Inclination
43.0013°
Eccentricity
0.0004551
Mean motion
15.70965738 rev/d
Perigee alt
353.1 km
Apogee alt
359.2 km
Semi-major
6,734.3 km
B*
1.0417e-3
RAAN
78.8317°
Arg perigee
269.7031°
Mean anomaly
90.3315°
Rev number
9,432

§ Raw data

STARLINK-11419 [DTC]1 62883U 25024E   26264.88821064  .00136202  00000+0  10417-2 0  99952 62883  43.0013  78.8317 0004551 269.7031  90.3315 15.70965738 94327

JSON: /api/v1/satellites/62883 · /tle

For live sub-satellite position, see the globe view (requires WebGL).

§ Visibility from observer

Set your observer location to see the next 7 days of passes ≥ 10°. The values pass through the URL so the page stays shareable.

No JS? Fill the form by hand. The geolocation button needs JavaScript.